Notices

What's New in latest Release from April 7th, 2021:

- Updated Glossary, including Speed of Maximum Gust, and Total Hourly Precipitation

- Updated national and regional climate services offices contacts and prices information

- Addition of station inventory lists for 1981-2010, 1971-2000, and 1961-1990 Normals.

If you haven't already, please take our survey and provide feedback about our website: https://eccc.sondage-survey.ca/f/LanguageSelection.aspx?s=442ca660-fcf1-47c0-95a9-59707d6fd709

Hourly Data Report for January 07, 2004

SHERBROOKE A
QUEBEC

45°26'00.000" N
71°41'00.000" W
241.40 m
7028124
71610
YSC

Download Data

Hourly Data (January 2004)
Hourly Data Report for January 7, 2004
TIME
LST
Temp Definition
°C
Dew Point Definition
°C
Rel Hum Definition
%
Precip. Amount Definition
mm

Wind Dir Definition
10's deg

Wind Spd Definition
km/h
Visibility Definition
km
Stn Press Definition
kPa
Hmdx Definition


Wind Chill Definition


Weather Definition


00:00 -14.7 -17.0 83   26 11 15.0 98.33   -21  
01:00 -17.4 -19.5 84   15 6 15.0 98.33   -22  
02:00 -19.5 -21.9 81   21 6 15.0 98.32   -24  
03:00 -15.5 -17.5 85   24 6 2.9 98.27   -20 Snow
04:00 -15.5 -17.5 85   23 4 1.3 98.23   -18 Snow
05:00 -15.0 -17.4 82   20 6 2.4 98.19   -19 Snow
06:00 -14.3 -16.7 82   23 9 4.0 98.15   -20 Snow
07:00 -13.9 -16.4 81   23 7 6.4 98.14   -19  
08:00 -13.7 -16.2 81   24 9 3.2 98.18   -19 Snow Showers
09:00 -12.7 -15.7 78   26 19 2.0 98.18   -21 Snow Showers
10:00 -12.2 -15.6 76   27 28 2.4 98.19   -22 Snow Showers,Blowing Snow
11:00 -12.6 -17.1 69   28 22 24.1 98.20   -22 Mainly Clear
12:00 -12.7 -20.8 51   27 24 24.1 98.14   -22 Mainly Clear
13:00 -12.1 -21.2 47   27 22 24.1 98.09   -21 Cloudy
14:00 -12.3 -20.7 50   26 32 24.1 98.07   -23 Cloudy
15:00 -12.7 -18.4 62   25 24 19.3 98.06   -22 Snow Showers
16:00 -13.5 -21.8 50   26 37 24.1 98.08   -25 Snow Showers
17:00 -14.3 -23.2 47   28 19 24.1 98.14   -23 Mostly Cloudy
18:00 -15.3 -22.1 56   27 32 4.0 98.20   -27 Snow
19:00 -17.5 -22.3 66   30 24 0.6 98.38   -28 Snow
20:00 -19.9 -28.6 46   30 32 2.7 98.49   -33 Snow
21:00 -21.5 -28.8 52   30 24 15.0 98.58   -33 Snow
22:00 -22.6 -32.3 41   29 28 15.0 98.66   -36 Snow
23:00 -23.5 -32.7 43   29 32 15.0 98.71   -38  

Notes on Data Quality.

Legend

  • E = Estimated
  • M = Missing
  • NA = Not Available*
  • [empty] = Indicates an unobserved value
Date modified: